Location: Agua Amarilla
(10.0342°N, 66.8490°W)
Time: 04:29:02
(UTC+00:00)

Meteor 2-10 - Pass Details

Date: 26 June 2022
Orbit: 739 x 867 km, 81.2° (Epoch: 18 August)

Event Time Altitude Azimuth Distance (km) Brightness Sun altitude
Rises 23:10:23 0° 1° (N) 3,206 7.6 -5.0°
Reaches altitude 10° 23:12:43 10° 5° (N) 2,297 6.8 -5.6°
Maximum altitude 23:17:48 59° 85° (E) 903 4.1 -6.7°
Drops below altitude 10° 23:23:04 10° 163° (SSE) 2,380 6.2 -7.9°
Sets 23:25:32 0° 167° (SSE) 3,331 6.9 -8.4°
